Back to catalog

DELTA 1 DEB

AliveSSO
NORAD 7041·DEBRIS·🇺🇸 United States

Launched Nov 6, 1973 from Vandenberg Space Force Base

Loading…

Next Passes (next 24 hours)

TLE

FreshSource: Space-Track

Epoch: Sep 14, 2026, 12:44 UTC

1 07041U 73086AH  26257.53063047  .00000324  00000-0  26451-2 0  9995
2 07041 101.5488 276.0400 0187344  50.7433 102.5629 12.37981866365650

Track DELTA 1 DEB in real time with AllMySat

Download on the App Store